Precipitable_Water
1.53 1.50 1.50 1.47 1.46 1.43 1.42 1.42 1.43 1.46 1.49 1.54 1.53 1.55 1.57 1.55 1.55 1.57 1.59 1.55 1.59 1.57 1.53 1.52 1.54 1.54 1.55 1.56 1.55 1.54 1.54 1.56 1.60 1.60 1.60 1.59 1.60 1.59 1.63 1.66 1.59 1.58 1.58 1.55 1.55 1.54 1.54 1.51 1.51 1.54 1.58 1.51 1.49 1.50 1.50 1.50 1.56 1.58 1.61 1.58 1.55 1.58 1.55 1.45 1.26 1.24 1.39 1.49 1.41 1.40 1.37 1.38 1.28 1.35 1.32 1.30 1.30 1.36 1.37 1.41 1.46 1.46 1.52 1.55 1.68
1.54 1.55 1.55 1.53 1.46 1.44 1.43 1.46 1.46 1.47 1.46 1.51 1.50 1.53 1.54 1.55 1.57 1.60 1.57 1.62 1.61 1.59 1.58 1.59 1.56 1.56 1.54 1.53 1.53 1.54 1.57 1.54 1.53 1.53 1.51 1.52 1.52 1.55 1.56 1.53 1.48 1.47 1.46 1.43 1.45 1.45 1.48 1.47 1.50 1.55 1.61 1.59 1.56 1.52 1.48 1.49 1.51 1.52 1.57 1.56 1.54 1.53 1.65 1.46 1.37 1.27 1.23 1.40 1.38 1.40 1.31 1.38 1.23 1.34 1.31 1.31 1.36 1.43 1.42 1.45 1.49 1.51 1.55 1.52 1.54
1.60 1.61 1.59 1.57 1.53 1.51 1.48 1.48 1.49 1.47 1.48 1.51 1.51 1.52 1.54 1.54 1.59 1.56 1.57 1.62 1.67 1.61 1.61 1.59 1.62 1.64 1.61 1.59 1.58 1.55 1.55 1.55 1.56 1.51 1.50 1.51 1.49 1.49 1.54 1.56 1.53 1.46 1.43 1.42 1.40 1.42 1.41 1.43 1.47 1.53 1.61 1.64 1.65 1.60 1.58 1.51 1.49 1.46 1.44 1.44 1.44 1.47 1.52 1.55 1.40 1.26 1.21 1.23 1.31 1.30 1.30 1.30 1.25 1.31 1.41 1.44 1.49 1.53 1.45 1.55 1.68 1.81 1.74 1.60 1.58
1.64 1.63 1.60 1.57 1.58 1.56 1.51 1.50 1.50 1.50 1.48 1.52 1.54 1.55 1.58 1.59 1.60 1.58 1.59 1.62 1.63 1.67 1.64 1.64 1.64 1.64 1.60 1.60 1.59 1.57 1.58 1.57 1.56 1.57 1.53 1.49 1.48 1.50 1.49 1.46 1.44 1.44 1.41 1.38 1.38 1.39 1.39 1.41 1.44 1.50 1.54 1.56 1.54 1.48 1.49 1.51 1.51 1.50 1.48 1.48 1.42 1.39 1.37 1.37 1.40 1.30 1.28 1.18 1.30 1.27 1.34 1.32 1.36 1.42 1.44 1.46 1.50 1.51 1.53 1.61 1.65 1.69 1.73 1.64 1.62
1.64 1.65 1.63 1.59 1.58 1.56 1.54 1.52 1.51 1.51 1.50 1.51 1.50 1.53 1.55 1.60 1.64 1.60 1.60 1.59 1.64 1.68 1.71 1.67 1.63 1.64 1.59 1.59 1.60 1.61 1.61 1.62 1.59 1.58 1.60 1.62 1.61 1.57 1.54 1.53 1.51 1.48 1.45 1.42 1.41 1.39 1.39 1.39 1.44 1.51 1.55 1.52 1.56 1.55 1.58 1.59 1.58 1.53 1.50 1.49 1.46 1.46 1.46 1.43 1.41 1.42 1.34 1.27 1.28 1.37 1.41 1.44 1.51 1.51 1.55 1.48 1.50 1.54 1.57 1.58 1.63 1.69 1.66 1.65 1.60
1.61 1.63 1.65 1.62 1.59 1.56 1.56 1.56 1.53 1.52 1.52 1.51 1.52 1.53 1.54 1.54 1.60 1.63 1.61 1.61 1.65 1.67 1.69 1.73 1.67 1.63 1.62 1.62 1.64 1.67 1.68 1.68 1.67 1.63 1.63 1.64 1.65 1.63 1.61 1.57 1.56 1.53 1.50 1.50 1.48 1.47 1.46 1.50 1.56 1.58 1.55 1.52 1.54 1.61 1.63 1.57 1.54 1.49 1.48 1.47 1.49 1.56 1.51 1.53 1.57 1.50 1.43 1.37 1.36 1.38 1.52 1.49 1.50 1.50 1.55 1.57 1.51 1.46 1.50 1.60 1.63 1.68 1.63 1.53 1.51
1.62 1.60 1.62 1.60 1.59 1.58 1.56 1.57 1.59 1.59 1.57 1.56 1.57 1.57 1.56 1.56 1.56 1.61 1.66 1.63 1.64 1.64 1.67 1.68 1.73 1.72 1.71 1.67 1.66 1.70 1.73 1.73 1.73 1.71 1.67 1.65 1.64 1.62 1.62 1.63 1.61 1.57 1.57 1.56 1.57 1.58 1.61 1.63 1.65 1.64 1.59 1.56 1.56 1.60 1.64 1.65 1.62 1.59 1.59 1.55 1.61 1.54 1.46 1.43 1.66 1.67 1.56 1.43 1.42 1.45 1.44 1.55 1.55 1.47 1.59 1.64 1.61 1.64 1.53 1.47 1.42 1.54 1.53 1.44 1.42
1.68 1.64 1.61 1.58 1.56 1.56 1.57 1.58 1.60 1.63 1.66 1.66 1.62 1.61 1.60 1.59 1.59 1.62 1.68 1.67 1.63 1.63 1.66 1.70 1.74 1.74 1.73 1.73 1.74 1.76 1.78 1.76 1.76 1.74 1.73 1.72 1.69 1.65 1.62 1.59 1.56 1.58 1.60 1.61 1.64 1.65 1.67 1.70 1.70 1.71 1.68 1.71 1.70 1.66 1.65 1.63 1.66 1.61 1.67 1.63 1.72 1.62 1.48 1.42 1.37 1.45 1.51 1.41 1.37 1.40 1.47 1.44 1.45 1.55 1.61 1.67 1.59 1.56 1.58 1.42 1.31 1.32 1.35 1.43 1.50
1.70 1.67 1.64 1.57 1.56 1.58 1.58 1.58 1.60 1.62 1.65 1.68 1.66 1.63 1.64 1.65 1.64 1.65 1.66 1.65 1.66 1.66 1.67 1.68 1.72 1.74 1.77 1.76 1.77 1.78 1.78 1.78 1.77 1.77 1.75 1.72 1.69 1.66 1.66 1.65 1.62 1.57 1.57 1.61 1.67 1.71 1.74 1.78 1.81 1.81 1.78 1.75 1.84 1.72 1.58 1.59 1.59 1.55 1.57 1.55 1.63 1.61 1.54 1.50 1.46 1.45 1.58 1.56 1.42 1.46 1.46 1.45 1.48 1.45 1.43 1.42 1.37 1.36 1.42 1.43 1.34 1.35 1.38 1.40 1.55
1.68 1.67 1.65 1.62 1.65 1.67 1.66 1.62 1.59 1.59 1.60 1.60 1.63 1.63 1.64 1.65 1.67 1.66 1.66 1.64 1.63 1.66 1.68 1.71 1.73 1.74 1.73 1.75 1.76 1.74 1.74 1.77 1.79 1.77 1.76 1.74 1.75 1.74 1.71 1.69 1.68 1.66 1.64 1.61 1.61 1.63 1.66 1.72 1.69 1.93 2.02 1.87 1.75 1.67 1.64 1.63 1.64 1.62 1.68 1.74 1.73 1.66 1.60 1.55 1.53 1.56 1.60 1.54 1.44 1.39 1.35 1.34 1.36 1.39 1.34 1.33 1.38 1.51 1.45 1.34 1.19 1.30 1.38 1.41 1.49
1.68 1.67 1.67 1.72 1.76 1.78 1.76 1.71 1.65 1.58 1.57 1.58 1.61 1.61 1.60 1.64 1.66 1.67 1.68 1.68 1.68 1.68 1.64 1.64 1.66 1.70 1.73 1.74 1.75 1.75 1.75 1.79 1.92 1.89 1.77 1.70 1.67 1.68 1.68 1.70 1.77 1.75 1.66 1.60 1.62 1.66 1.71 1.60 1.65 1.81 1.97 1.98 1.78 1.81 1.79 1.78 1.71 1.74 1.77 1.75 1.74 1.70 1.63 1.50 1.50 1.74 1.69 1.52 1.44 1.40 1.35 1.30 1.30 1.39 1.41 1.37 1.45 1.40 1.29 1.26 1.28 1.35 1.33 1.28 1.26
1.76 1.74 1.75 1.80 1.82 1.81 1.79 1.78 1.73 1.67 1.61 1.57 1.58 1.60 1.61 1.59 1.61 1.64 1.63 1.65 1.67 1.65 1.64 1.64 1.64 1.67 1.71 1.74 1.74 1.76 1.83 1.90 1.78 1.82 1.95 1.93 1.87 1.78 1.74 1.70 1.71 1.77 1.75 1.68 1.66 1.67 1.74 1.75 1.76 1.86 1.83 1.74 1.73 1.72 1.83 2.02 1.98 1.85 1.81 1.78 1.77 1.75 1.77 1.67 1.54 1.45 1.50 1.46 1.39 1.37 1.32 1.30 1.36 1.39 1.40 1.44 1.40 1.35 1.32 1.35 1.41 1.39 1.39 1.39 1.41
1.76 1.78 1.82 1.84 1.86 1.85 1.84 1.81 1.79 1.76 1.73 1.67 1.59 1.57 1.56 1.56 1.56 1.56 1.54 1.59 1.63 1.62 1.61 1.60 1.62 1.66 1.65 1.67 1.71 1.78 1.73 1.78 1.84 1.85 1.87 1.91 1.86 1.91 1.87 1.82 1.86 1.87 1.79 1.80 1.78 1.81 1.82 1.78 1.73 1.78 1.83 1.83 1.90 1.92 1.86 1.87 2.03 2.06 1.88 1.84 1.81 1.77 1.70 1.68 1.68 1.59 1.55 1.49 1.46 1.45 1.45 1.44 1.36 1.42 1.50 1.48 1.51 1.37 1.45 1.50 1.59 1.61 1.62 1.53 1.49
1.77 1.75 1.76 1.81 1.84 1.88 1.86 1.83 1.81 1.82 1.83 1.81 1.73 1.61 1.55 1.51 1.54 1.56 1.57 1.59 1.56 1.58 1.62 1.63 1.65 1.65 1.67 1.69 1.73 1.76 1.77 1.74 1.75 1.78 1.81 1.83 1.84 1.86 1.97 1.90 1.84 1.88 1.83 1.86 1.92 1.88 1.88 1.85 1.79 1.76 1.85 1.89 1.90 1.95 2.01 1.98 1.98 1.95 1.94 1.91 1.83 1.81 1.74 1.73 1.70 1.67 1.64 1.58 1.56 1.51 1.65 1.65 1.54 1.58 1.64 1.64 1.56 1.53 1.56 1.58 1.69 1.69 1.72 1.71 1.70
1.78 1.78 1.77 1.83 1.83 1.83 1.86 1.86 1.84 1.85 1.86 1.86 1.82 1.73 1.65 1.59 1.57 1.57 1.56 1.55 1.57 1.56 1.56 1.59 1.66 1.68 1.69 1.71 1.70 1.73 1.76 1.79 1.72 1.73 1.81 1.84 1.84 1.84 1.85 1.80 1.78 1.78 1.86 1.95 1.97 1.91 1.87 1.90 1.88 1.87 1.90 1.94 1.96 1.94 1.95 1.94 1.91 1.85 1.81 1.86 1.78 1.67 1.70 1.79 1.86 1.80 1.70 1.71 1.71 1.74 1.83 1.85 1.84 1.83 1.80 1.83 1.81 1.82 1.84 1.79 1.82 1.84 1.83 1.89 1.75
1.80 1.81 1.82 1.87 1.87 1.85 1.84 1.83 1.85 1.87 1.88 1.84 1.83 1.80 1.77 1.72 1.64 1.65 1.63 1.63 1.64 1.65 1.65 1.62 1.63 1.65 1.71 1.71 1.71 1.72 1.64 1.64 1.63 1.68 1.71 1.69 1.70 1.70 1.71 1.71 1.69 1.67 1.64 1.63 1.68 1.81 1.92 1.97 1.98 1.86 1.80 1.81 1.91 1.95 1.91 1.89 1.77 1.69 1.70 1.72 1.78 1.72 1.75 1.75 1.82 1.81 1.75 1.79 1.82 1.88 1.90 1.89 1.89 1.87 1.89 1.90 1.94 1.97 1.97 1.93 1.91 1.85 1.75 1.65 1.43
1.84 1.84 1.86 1.88 1.86 1.88 1.88 1.86 1.83 1.85 1.86 1.84 1.83 1.82 1.80 1.81 1.79 1.76 1.66 1.65 1.63 1.64 1.62 1.62 1.63 1.61 1.60 1.65 1.66 1.74 1.64 1.60 1.59 1.63 1.65 1.68 1.65 1.64 1.66 1.65 1.63 1.65 1.67 1.72 1.80 1.88 1.84 1.83 1.74 1.72 1.89 1.79 1.76 1.78 1.77 1.75 1.63 1.59 1.52 1.54 1.61 1.71 1.96 1.89 1.93 1.88 1.84 1.85 1.88 1.92 1.92 1.89 1.87 1.84 1.84 1.84 1.88 1.92 1.89 1.79 1.70 1.66 1.53 1.38 1.25
1.87 1.87 1.86 1.88 1.89 1.91 1.94 1.94 1.89 1.84 1.82 1.80 1.87 1.88 1.84 1.83 1.82 1.83 1.76 1.73 1.67 1.64 1.65 1.65 1.65 1.62 1.56 1.58 1.63 1.71 1.57 1.55 1.56 1.57 1.58 1.59 1.59 1.56 1.59 1.57 1.57 1.57 1.60 1.66 1.72 1.80 1.82 1.81 1.74 1.73 1.68 1.65 1.67 1.68 1.66 1.64 1.57 1.58 1.56 1.61 1.69 1.63 1.74 1.94 2.08 2.06 2.02 2.02 2.03 1.98 1.96 1.95 1.92 1.89 1.85 1.85 1.84 1.83 1.74 1.64 1.63 1.57 1.41 1.27 1.09
1.91 1.88 1.93 1.95 1.94 1.92 1.92 1.90 1.90 1.89 1.85 1.81 1.86 1.86 1.85 1.83 1.84 1.83 1.80 1.79 1.75 1.74 1.71 1.69 1.68 1.67 1.65 1.64 1.64 1.67 1.59 1.55 1.53 1.54 1.54 1.53 1.54 1.57 1.57 1.52 1.47 1.50 1.53 1.57 1.64 1.76 1.69 1.67 1.60 1.60 1.59 1.58 1.59 1.57 1.58 1.59 1.58 1.60 1.60 1.54 1.43 1.59 1.90 1.91 1.74 1.79 1.90 1.94 1.97 2.01 2.01 2.00 1.98 1.95 1.93 1.88 1.85 1.80 1.79 1.76 1.68 1.50 1.32 1.19 1.07
1.92 1.92 1.99 2.00 1.99 1.91 1.87 1.87 1.89 1.89 1.87 1.85 1.85 1.89 1.97 1.95 1.90 1.89 1.90 1.91 1.88 1.84 1.80 1.80 1.78 1.74 1.71 1.70 1.73 1.75 1.68 1.60 1.55 1.55 1.56 1.57 1.59 1.60 1.62 1.52 1.45 1.46 1.49 1.52 1.68 1.79 1.73 1.61 1.53 1.48 1.50 1.51 1.53 1.54 1.56 1.58 1.59 1.61 1.61 1.54 1.49 1.53 1.74 1.83 1.90 1.91 1.89 1.94 1.98 2.03 2.00 2.01 2.04 2.01 2.00 1.95 1.89 1.78 1.68 1.65 1.58 1.42 1.27 1.09 1.02
1.95 1.96 1.99 2.03 2.00 1.92 1.88 1.83 1.79 1.86 1.94 1.87 1.85 1.97 2.08 2.04 2.04 2.04 2.00 1.99 1.98 1.95 1.88 1.86 1.83 1.82 1.83 1.82 1.82 1.84 1.82 1.72 1.64 1.62 1.63 1.66 1.71 1.75 1.77 1.71 1.67 1.68 1.73 1.83 1.83 1.77 1.74 1.67 1.63 1.56 1.53 1.52 1.51 1.55 1.58 1.60 1.64 1.68 1.69 1.67 1.72 1.80 1.85 1.82 1.90 1.96 1.90 1.96 2.00 1.98 1.98 2.00 1.94 1.90 1.86 1.84 1.81 1.76 1.69 1.60 1.54 1.39 1.18 1.04 0.97
2.04 2.03 2.05 2.04 2.02 1.99 1.96 1.95 1.98 2.00 2.02 1.98 1.93 1.98 2.09 2.16 2.08 2.11 2.14 2.07 1.96 1.94 1.95 1.90 1.88 1.90 1.92 1.92 1.90 1.90 1.90 1.88 1.81 1.74 1.73 1.73 1.74 1.76 1.76 1.74 1.78 1.82 1.81 1.83 1.88 1.91 1.95 1.96 1.89 1.75 1.71 1.69 1.66 1.64 1.66 1.68 1.72 1.76 1.76 1.79 1.83 1.85 1.83 1.83 1.83 1.89 1.98 1.98 1.88 1.84 1.82 1.78 1.78 1.79 1.79 1.75 1.71 1.68 1.61 1.56 1.43 1.27 1.18 1.11 1.00
1.98 2.00 2.02 2.00 1.98 1.99 2.02 2.03 2.03 2.06 2.04 2.05 2.02 2.02 2.08 2.11 2.11 2.13 2.09 2.04 1.98 1.95 1.92 1.89 1.88 1.89 1.91 1.92 1.90 1.88 1.85 1.84 1.81 1.78 1.75 1.74 1.75 1.75 1.74 1.74 1.78 1.85 1.83 1.83 1.88 1.95 2.01 2.00 2.00 2.00 1.91 1.85 1.83 1.80 1.78 1.77 1.73 1.71 1.75 1.77 1.76 1.75 1.77 1.76 1.77 1.78 1.74 1.70 1.65 1.60 1.65 1.69 1.70 1.69 1.66 1.66 1.65 1.60 1.57 1.43 1.27 1.19 1.14 1.09 1.00
1.89 1.89 1.89 1.88 1.89 1.91 1.95 1.96 1.96 2.00 1.97 1.96 1.98 1.96 2.00 2.07 2.07 2.05 2.01 1.95 1.90 1.87 1.86 1.86 1.84 1.82 1.81 1.83 1.86 1.86 1.84 1.81 1.79 1.76 1.74 1.71 1.69 1.68 1.67 1.67 1.70 1.74 1.80 1.82 1.88 1.93 1.94 1.93 1.89 1.91 1.93 1.91 1.88 1.86 1.83 1.80 1.79 1.78 1.79 1.79 1.81 1.84 1.85 1.82 1.79 1.77 1.76 1.70 1.67 1.69 1.65 1.64 1.64 1.62 1.60 1.57 1.54 1.50 1.41 1.29 1.19 1.16 1.10 1.05 1.01
1.75 1.74 1.76 1.79 1.79 1.80 1.82 1.81 1.81 1.83 1.84 1.84 1.81 1.84 1.88 1.92 1.87 1.90 1.89 1.87 1.87 1.83 1.83 1.84 1.81 1.80 1.79 1.76 1.76 1.78 1.79 1.78 1.76 1.72 1.69 1.66 1.65 1.64 1.63 1.64 1.64 1.63 1.64 1.67 1.70 1.75 1.80 1.83 1.79 1.80 1.80 1.79 1.77 1.78 1.79 1.79 1.80 1.82 1.82 1.80 1.80 1.78 1.77 1.75 1.73 1.69 1.60 1.57 1.58 1.60 1.59 1.60 1.61 1.58 1.56 1.55 1.50 1.39 1.24 1.18 1.16 1.13 1.10 1.07 1.03
1.59 1.61 1.62 1.66 1.66 1.67 1.64 1.68 1.72 1.75 1.78 1.83 1.80 1.78 1.76 1.76 1.75 1.76 1.75 1.74 1.73 1.69 1.68 1.69 1.70 1.69 1.65 1.65 1.66 1.69 1.70 1.68 1.64 1.62 1.64 1.66 1.66 1.61 1.58 1.54 1.53 1.54 1.54 1.52 1.50 1.51 1.54 1.58 1.61 1.63 1.65 1.70 1.70 1.68 1.65 1.63 1.66 1.70 1.72 1.72 1.73 1.72 1.69 1.69 1.67 1.61 1.57 1.57 1.56 1.54 1.55 1.53 1.50 1.48 1.45 1.36 1.23 1.10 1.05 0.98 0.99 0.99 0.95 0.93 0.87
1.52 1.51 1.53 1.59 1.62 1.63 1.59 1.60 1.64 1.69 1.74 1.72 1.69 1.70 1.71 1.68 1.64 1.61 1.61 1.61 1.62 1.63 1.62 1.60 1.57 1.56 1.58 1.64 1.66 1.65 1.60 1.57 1.54 1.54 1.56 1.58 1.56 1.56 1.55 1.50 1.45 1.41 1.41 1.39 1.40 1.43 1.44 1.48 1.50 1.52 1.53 1.53 1.52 1.52 1.55 1.59 1.62 1.62 1.62 1.62 1.62 1.63 1.64 1.61 1.57 1.52 1.51 1.49 1.47 1.45 1.44 1.43 1.36 1.27 1.14 1.07 1.00 0.96 0.95 0.89 0.86 0.87 0.87 0.85 0.80
1.53 1.50 1.50 1.53 1.59 1.63 1.59 1.56 1.56 1.56 1.58 1.60 1.60 1.60 1.63 1.63 1.59 1.58 1.59 1.61 1.58 1.58 1.58 1.56 1.53 1.54 1.57 1.60 1.63 1.64 1.59 1.58 1.57 1.52 1.50 1.47 1.43 1.42 1.41 1.40 1.36 1.31 1.32 1.36 1.37 1.35 1.28 1.22 1.22 1.26 1.31 1.33 1.36 1.40 1.45 1.49 1.51 1.51 1.45 1.43 1.45 1.45 1.44 1.43 1.41 1.37 1.35 1.36 1.37 1.38 1.33 1.30 1.21 1.10 1.02 0.93 0.89 0.88 0.88 0.86 0.80 0.80 0.80 0.79 0.78
1.48 1.49 1.50 1.49 1.49 1.53 1.52 1.51 1.51 1.51 1.56 1.60 1.55 1.58 1.57 1.53 1.65 1.63 1.73 1.75 1.72 1.67 1.68 1.68 1.66 1.67 1.67 1.63 1.56 1.50 1.51 1.47 1.47 1.48 1.46 1.41 1.35 1.36 1.32 1.28 1.19 1.18 1.11 1.14 1.24 1.28 1.27 1.21 1.18 1.20 1.20 1.20 1.19 1.20 1.23 1.28 1.35 1.37 1.35 1.36 1.36 1.35 1.33 1.31 1.27 1.27 1.28 1.26 1.23 1.22 1.17 1.12 1.11 1.12 1.07 0.99 0.90 0.87 0.84 0.83 0.85 0.80 0.80 0.79 0.75
1.14 1.17 1.21 1.21 1.22 1.24 1.25 1.28 1.31 1.33 1.31 1.33 1.38 1.44 1.50 1.50 1.52 1.52 1.52 1.57 1.59 1.58 1.52 1.45 1.45 1.46 1.43 1.43 1.44 1.37 1.31 1.34 1.32 1.29 1.23 1.17 1.13 1.11 1.09 1.08 1.05 1.01 1.04 1.12 1.18 1.20 1.16 1.17 1.16 1.17 1.17 1.15 1.12 1.09 1.07 1.07 1.06 1.08 1.11 1.15 1.19 1.21 1.22 1.21 1.19 1.15 1.13 1.07 1.04 0.99 0.95 0.94 0.90 0.91 0.91 0.91 0.90 0.90 0.88 0.80 0.80 0.79 0.76 0.74 0.72
0.99 1.02 1.07 1.08 1.10 1.10 1.09 1.09 1.12 1.13 1.14 1.15 1.15 1.15 1.16 1.22 1.27 1.32 1.36 1.39 1.43 1.42 1.41 1.39 1.39 1.36 1.32 1.23 1.23 1.21 1.14 1.06 0.98 0.93 0.92 0.91 0.93 0.91 0.91 0.91 0.92 0.94 1.06 1.13 1.16 1.16 1.14 1.13 1.13 1.12 1.12 1.13 1.11 1.09 1.09 1.10 1.10 1.08 1.05 1.05 1.05 1.06 1.06 1.06 1.06 1.06 1.03 0.98 0.94 0.92 0.91 0.89 0.86 0.83 0.81 0.79 0.77 0.79 0.82 0.82 0.80 0.79 0.76 0.74 0.72
0.87 0.91 0.94 0.97 0.99 1.00 0.97 0.94 0.94 0.97 1.00 1.01 0.98 0.95 0.91 0.87 0.89 0.96 0.99 1.02 1.03 1.05 1.06 1.07 1.06 1.04 1.01 0.97 0.92 0.87 0.84 0.82 0.82 0.83 0.83 0.84 0.84 0.84 0.83 0.84 0.87 0.94 1.04 1.09 1.08 1.05 1.09 1.07 1.07 1.08 1.11 1.11 1.12 1.13 1.13 1.12 1.10 1.10 1.10 1.08 1.06 1.07 1.03 0.99 1.00 1.00 0.99 0.99 0.97 0.94 0.93 0.91 0.89 0.85 0.83 0.82 0.78 0.81 0.81 0.79 0.78 0.76 0.75 0.74 0.73
0.95 0.93 0.93 0.93 0.93 0.91 0.91 0.89 0.88 0.88 0.86 0.86 0.85 0.84 0.79 0.76 0.72 0.71 0.77 0.79 0.80 0.79 0.79 0.78 0.78 0.77 0.76 0.76 0.76 0.75 0.76 0.80 0.84 0.85 0.86 0.86 0.86 0.87 0.87 0.87 0.89 0.94 1.00 1.03 0.99 0.96 1.00 1.00 1.00 0.99 1.04 1.04 1.04 1.04 1.03 1.03 1.03 1.04 1.05 1.04 1.02 1.02 1.03 1.03 1.02 0.97 0.95 0.93 0.94 0.92 0.91 0.90 0.89 0.88 0.87 0.86 0.83 0.79 0.80 0.80 0.81 0.80 0.78 0.75 0.74
0.98 0.99 0.99 0.99 0.97 0.94 0.93 0.92 0.91 0.91 0.92 0.92 0.91 0.89 0.87 0.83 0.79 0.74 0.69 0.69 0.72 0.75 0.77 0.77 0.76 0.75 0.75 0.75 0.74 0.75 0.78 0.81 0.84 0.86 0.87 0.89 0.91 0.92 0.93 0.94 0.98 1.03 1.05 1.00 0.97 0.96 0.96 0.97 0.98 1.01 1.01 1.01 1.00 0.99 0.99 0.98 0.97 0.96 0.95 0.95 0.95 0.95 0.95 0.97 0.94 0.91 0.90 0.90 0.89 0.89 0.88 0.88 0.88 0.86 0.85 0.86 0.88 0.88 0.87 0.86 0.86 0.84 0.83 0.82 0.79
0.89 0.88 0.94 0.95 0.94 0.93 0.93 0.93 0.92 0.92 0.92 0.92 0.91 0.90 0.90 0.90 0.87 0.82 0.78 0.74 0.73 0.72 0.73 0.77 0.79 0.80 0.80 0.80 0.81 0.82 0.84 0.85 0.86 0.86 0.87 0.90 0.92 0.95 0.97 0.98 0.93 0.95 0.99 1.01 0.99 0.99 0.98 0.97 0.98 0.98 0.97 0.96 0.97 0.97 0.96 0.96 0.95 0.94 0.93 0.92 0.92 0.92 0.92 0.91 0.91 0.91 0.90 0.89 0.89 0.88 0.87 0.86 0.85 0.85 0.84 0.83 0.83 0.82 0.82 0.82 0.81 0.81 0.79 0.78 0.78
0.97 0.94 0.92 0.91 0.91 0.91 0.91 0.92 0.93 0.93 0.93 0.93 0.94 0.91 0.90 0.88 0.88 0.86 0.85 0.84 0.79 0.76 0.77 0.80 0.80 0.80 0.81 0.81 0.81 0.81 0.82 0.82 0.82 0.82 0.83 0.84 0.88 0.92 0.91 0.86 0.88 0.90 0.91 0.93 0.94 0.95 0.95 0.95 0.96 0.97 0.98 0.98 0.98 0.98 0.97 0.96 0.95 0.94 0.94 0.93 0.91 0.91 0.90 0.90 0.90 0.89 0.89 0.89 0.89 0.89 0.88 0.87 0.87 0.86 0.85 0.84 0.82 0.81 0.80 0.80 0.79 0.79 0.76 0.76 0.76
0.91 0.94 0.93 0.93 0.93 0.94 0.92 0.92 0.93 0.94 0.92 0.92 0.92 0.92 0.90 0.90 0.90 0.86 0.84 0.85 0.82 0.82 0.83 0.81 0.80 0.80 0.81 0.83 0.82 0.81 0.82 0.81 0.81 0.80 0.81 0.82 0.83 0.89 0.84 0.84 0.83 0.84 0.85 0.86 0.89 0.90 0.90 0.91 0.93 0.93 0.93 0.93 0.93 0.94 0.93 0.92 0.93 0.93 0.93 0.94 0.94 0.92 0.90 0.89 0.89 0.88 0.86 0.85 0.85 0.85 0.84 0.83 0.83 0.83 0.81 0.79 0.79 0.79 0.78 0.77 0.75 0.73 0.71 0.70 0.69
0.81 0.85 0.89 0.91 0.90 0.90 0.90 0.89 0.84 0.82 0.86 0.86 0.90 0.90 0.90 0.89 0.87 0.86 0.85 0.85 0.84 0.83 0.82 0.81 0.80 0.79 0.79 0.81 0.83 0.83 0.80 0.80 0.80 0.78 0.80 0.83 0.85 0.82 0.80 0.81 0.82 0.81 0.80 0.81 0.82 0.83 0.82 0.84 0.86 0.85 0.86 0.87 0.87 0.87 0.87 0.87 0.87 0.86 0.86 0.87 0.88 0.88 0.83 0.85 0.85 0.84 0.82 0.80 0.79 0.79 0.78 0.77 0.76 0.75 0.74 0.72 0.71 0.70 0.70 0.69 0.67 0.65 0.66 0.66 0.65
0.76 0.68 0.71 0.74 0.80 0.84 0.85 0.82 0.80 0.82 0.80 0.79 0.79 0.77 0.81 0.83 0.84 0.85 0.83 0.84 0.82 0.81 0.82 0.83 0.80 0.80 0.84 0.85 0.82 0.83 0.76 0.75 0.76 0.80 0.82 0.83 0.83 0.81 0.79 0.78 0.78 0.77 0.78 0.78 0.78 0.79 0.80 0.79 0.80 0.81 0.82 0.82 0.82 0.81 0.81 0.80 0.80 0.80 0.79 0.79 0.79 0.78 0.78 0.77 0.76 0.76 0.76 0.75 0.74 0.74 0.74 0.73 0.73 0.72 0.70 0.67 0.66 0.65 0.64 0.63 0.63 0.62 0.60 0.60 0.61
0.76 0.77 0.70 0.70 0.75 0.72 0.76 0.76 0.75 0.76 0.74 0.73 0.73 0.72 0.72 0.74 0.75 0.79 0.80 0.79 0.81 0.81 0.81 0.81 0.81 0.83 0.88 0.88 0.85 0.82 0.77 0.78 0.80 0.83 0.82 0.82 0.82 0.82 0.79 0.76 0.76 0.75 0.75 0.77 0.77 0.78 0.78 0.78 0.79 0.80 0.80 0.80 0.81 0.80 0.79 0.80 0.80 0.79 0.79 0.77 0.75 0.74 0.74 0.74 0.72 0.69 0.68 0.69 0.68 0.68 0.66 0.66 0.65 0.64 0.63 0.62 0.60 0.58 0.57 0.56 0.56 0.55 0.55 0.55 0.55
0.72 0.72 0.71 0.66 0.67 0.68 0.69 0.69 0.70 0.71 0.71 0.72 0.74 0.72 0.72 0.70 0.71 0.72 0.75 0.76 0.77 0.78 0.80 0.81 0.82 0.88 0.95 0.91 0.90 0.87 0.84 0.82 0.82 0.84 0.84 0.84 0.84 0.83 0.81 0.79 0.78 0.77 0.78 0.78 0.79 0.80 0.80 0.80 0.80 0.80 0.80 0.80 0.79 0.78 0.77 0.75 0.73 0.72 0.70 0.69 0.69 0.70 0.69 0.68 0.67 0.66 0.65 0.64 0.63 0.62 0.61 0.60 0.59 0.57 0.55 0.55 0.53 0.54 0.54 0.54 0.52 0.52 0.51 0.51 0.51
0.77 0.73 0.69 0.70 0.70 0.70 0.70 0.70 0.71 0.71 0.71 0.70 0.69 0.70 0.70 0.69 0.69 0.70 0.71 0.72 0.73 0.74 0.75 0.78 0.81 0.89 0.91 0.86 0.84 0.84 0.84 0.86 0.86 0.86 0.87 0.87 0.86 0.86 0.84 0.83 0.81 0.80 0.80 0.81 0.81 0.80 0.81 0.79 0.80 0.80 0.78 0.75 0.73 0.72 0.71 0.71 0.68 0.66 0.65 0.65 0.64 0.64 0.63 0.62 0.61 0.61 0.60 0.60 0.59 0.58 0.57 0.56 0.54 0.53 0.52 0.51 0.52 0.52 0.51 0.51 0.50 0.50 0.50 0.49 0.50
0.78 0.78 0.79 0.79 0.74 0.73 0.71 0.72 0.76 0.76 0.75 0.74 0.74 0.75 0.73 0.71 0.72 0.72 0.71 0.71 0.73 0.73 0.73 0.74 0.79 0.84 0.85 0.82 0.81 0.81 0.81 0.84 0.86 0.88 0.88 0.88 0.88 0.88 0.85 0.83 0.83 0.83 0.83 0.83 0.83 0.82 0.81 0.79 0.77 0.75 0.72 0.71 0.69 0.68 0.66 0.66 0.65 0.64 0.64 0.64 0.63 0.63 0.62 0.61 0.60 0.60 0.59 0.59 0.58 0.57 0.56 0.55 0.54 0.53 0.52 0.52 0.51 0.50 0.50 0.50 0.49 0.48 0.48 0.47 0.47
0.75 0.75 0.78 0.79 0.81 0.82 0.83 0.83 0.81 0.79 0.78 0.78 0.76 0.77 0.77 0.78 0.77 0.76 0.76 0.77 0.77 0.77 0.76 0.77 0.80 0.82 0.86 0.85 0.83 0.82 0.81 0.83 0.86 0.88 0.87 0.87 0.87 0.84 0.82 0.82 0.83 0.81 0.80 0.79 0.79 0.78 0.76 0.73 0.71 0.70 0.69 0.70 0.70 0.68 0.67 0.67 0.67 0.66 0.65 0.64 0.64 0.62 0.61 0.60 0.61 0.62 0.60 0.58 0.57 0.55 0.54 0.53 0.52 0.52 0.51 0.50 0.50 0.48 0.47 0.47 0.47 0.46 0.45 0.44 0.45
0.69 0.70 0.70 0.72 0.78 0.80 0.82 0.86 0.83 0.85 0.85 0.84 0.83 0.82 0.83 0.83 0.81 0.82 0.81 0.79 0.80 0.83 0.84 0.83 0.83 0.86 0.89 0.92 0.88 0.84 0.83 0.83 0.85 0.85 0.87 0.87 0.83 0.81 0.81 0.83 0.80 0.77 0.76 0.76 0.77 0.75 0.74 0.73 0.73 0.72 0.70 0.70 0.69 0.68 0.67 0.67 0.67 0.65 0.63 0.62 0.61 0.60 0.59 0.61 0.62 0.62 0.60 0.57 0.55 0.53 0.51 0.50 0.49 0.48 0.48 0.47 0.47 0.46 0.45 0.44 0.44 0.44 0.43 0.44 0.43
0.61 0.62 0.62 0.63 0.65 0.68 0.68 0.72 0.75 0.74 0.72 0.72 0.73 0.73 0.76 0.79 0.81 0.81 0.81 0.80 0.81 0.81 0.82 0.82 0.83 0.84 0.85 0.87 0.90 0.89 0.87 0.87 0.87 0.85 0.83 0.83 0.82 0.78 0.79 0.79 0.78 0.77 0.77 0.77 0.77 0.77 0.77 0.75 0.73 0.71 0.69 0.67 0.64 0.63 0.62 0.62 0.61 0.61 0.61 0.61 0.61 0.61 0.61 0.62 0.62 0.60 0.58 0.57 0.55 0.53 0.51 0.50 0.49 0.49 0.47 0.46 0.46 0.45 0.45 0.44 0.44 0.44 0.44 0.43 0.44
0.59 0.58 0.57 0.56 0.56 0.56 0.58 0.58 0.57 0.60 0.60 0.59 0.59 0.59 0.59 0.61 0.65 0.68 0.70 0.69 0.70 0.71 0.70 0.70 0.72 0.75 0.79 0.82 0.84 0.85 0.86 0.86 0.83 0.80 0.82 0.82 0.80 0.79 0.79 0.79 0.79 0.79 0.79 0.79 0.78 0.76 0.73 0.71 0.70 0.68 0.65 0.64 0.62 0.62 0.62 0.61 0.60 0.58 0.57 0.57 0.57 0.56 0.56 0.56 0.54 0.53 0.52 0.51 0.49 0.48 0.46 0.45 0.44 0.45 0.46 0.46 0.45 0.44 0.44 0.43 0.43 0.42 0.43 0.43 0.43
0.60 0.58 0.57 0.57 0.55 0.54 0.55 0.56 0.55 0.56 0.54 0.54 0.56 0.57 0.56 0.55 0.54 0.55 0.57 0.58 0.58 0.59 0.60 0.61 0.63 0.65 0.68 0.73 0.79 0.81 0.83 0.83 0.81 0.80 0.82 0.81 0.81 0.81 0.80 0.79 0.77 0.77 0.77 0.76 0.74 0.73 0.72 0.70 0.68 0.65 0.63 0.62 0.62 0.60 0.60 0.60 0.59 0.58 0.57 0.56 0.57 0.57 0.55 0.52 0.50 0.51 0.51 0.48 0.48 0.47 0.46 0.45 0.45 0.45 0.45 0.45 0.44 0.43 0.42 0.41 0.42 0.41 0.42 0.42 0.42
0.57 0.56 0.56 0.57 0.58 0.57 0.55 0.55 0.55 0.54 0.54 0.54 0.54 0.54 0.55 0.55 0.55 0.54 0.53 0.54 0.54 0.53 0.53 0.55 0.59 0.62 0.65 0.68 0.71 0.73 0.76 0.76 0.76 0.77 0.79 0.81 0.80 0.78 0.78 0.77 0.76 0.75 0.73 0.72 0.71 0.71 0.70 0.68 0.66 0.65 0.63 0.61 0.60 0.60 0.59 0.58 0.56 0.55 0.55 0.55 0.55 0.51 0.49 0.47 0.45 0.49 0.47 0.47 0.48 0.48 0.48 0.47 0.46 0.46 0.45 0.45 0.45 0.44 0.43 0.43 0.42 0.42 0.42 0.42 0.42
0.56 0.57 0.56 0.56 0.56 0.56 0.58 0.58 0.57 0.56 0.55 0.54 0.54 0.54 0.54 0.54 0.53 0.54 0.55 0.56 0.56 0.54 0.55 0.59 0.62 0.65 0.67 0.70 0.72 0.75 0.78 0.76 0.76 0.77 0.76 0.77 0.79 0.79 0.78 0.76 0.74 0.73 0.70 0.68 0.68 0.68 0.67 0.67 0.66 0.64 0.62 0.60 0.59 0.58 0.57 0.55 0.54 0.53 0.54 0.54 0.50 0.49 0.47 0.46 0.45 0.45 0.45 0.48 0.47 0.48 0.48 0.47 0.47 0.47 0.47 0.46 0.45 0.45 0.44 0.43 0.43 0.43 0.43 0.42 0.42
0.56 0.56 0.55 0.56 0.56 0.57 0.56 0.55 0.55 0.55 0.56 0.56 0.55 0.55 0.55 0.55 0.54 0.56 0.57 0.58 0.58 0.60 0.63 0.64 0.66 0.68 0.68 0.70 0.73 0.75 0.77 0.77 0.77 0.77 0.77 0.77 0.78 0.78 0.76 0.74 0.72 0.70 0.70 0.69 0.68 0.67 0.67 0.66 0.63 0.61 0.60 0.58 0.56 0.55 0.55 0.54 0.54 0.57 0.54 0.51 0.50 0.48 0.46 0.45 0.46 0.47 0.46 0.46 0.47 0.48 0.47 0.46 0.46 0.45 0.45 0.46 0.45 0.45 0.44 0.44 0.44 0.44 0.44 0.43 0.43
Wind_Speed
17 16 16 15 15 15 14 14 14 14 13 13 12 11 11 10 9 9 8 8 8 8 8 8 8 8 8 8 8 8 8 8 8 7 7 7 7 7 7 7 7 7 6 6 6 6 6 7 7 7 7 7 7 7 7 7 6 6 6 6 6 6 6 6 7 7 7 7 7 8 8 8 9 9 9 10 10 11 12 12 13 13 13 14 14
17 16 16 15 15 15 15 15 14 14 14 13 13 12 11 11 10 10 9 9 9 9 9 9 9 9 9 9 9 8 8 8 8 8 8 8 8 8 8 8 8 8 8 8 8 7 7 8 8 7 7 7 7 7 7 7 7 7 7 7 7 7 6 6 7 7 8 8 8 8 8 9 9 10 10 11 11 12 12 13 13 14 14 15 15
17 17 16 16 16 15 15 15 15 15 14 14 13 13 12 12 11 11 10 10 10 10 9 9 9 10 10 10 9 9 9 9 9 9 9 9 9 9 9 9 9 9 9 9 8 8 8 8 8 8 7 7 7 7 7 7 7 7 7 8 8 8 7 7 8 8 9 9 9 9 9 10 11 11 11 12 13 13 13 14 14 14 14 15 16
18 17 17 17 16 16 16 15 15 15 15 14 14 14 13 12 12 12 11 11 10 10 10 10 10 10 10 10 10 10 10 9 9 9 9 9 9 9 9 9 10 10 10 9 9 9 9 9 9 9 8 8 8 8 8 8 8 8 8 8 8 9 9 9 9 9 10 10 10 10 11 11 12 12 12 13 14 14 14 14 14 15 15 16 16
18 18 18 17 17 17 16 16 16 15 15 15 14 14 14 13 13 12 12 12 11 11 11 11 11 11 11 11 11 11 11 11 10 10 10 10 10 10 10 10 10 10 10 10 10 10 10 10 10 9 9 9 9 9 9 9 9 9 9 9 9 9 9 10 10 10 11 11 11 11 12 12 12 13 13 13 14 14 14 14 14 15 15 16 16
18 18 18 18 17 17 17 16 16 16 16 15 15 14 14 14 13 13 13 12 12 12 11 11 11 11 12 12 12 12 11 11 11 11 11 11 11 11 11 11 11 11 11 11 11 11 11 11 11 11 10 10 10 10 10 10 10 10 10 10 10 10 10 11 11 11 12 12 12 12 12 12 13 13 13 13 14 15 14 15 15 15 16 16 16
19 19 18 18 18 18 18 17 17 16 16 15 15 15 14 14 14 14 13 13 13 13 12 12 12 12 12 12 12 12 12 12 12 12 12 12 12 12 12 12 12 12 12 12 12 12 12 12 12 12 12 12 12 12 11 11 11 11 11 11 11 11 12 12 12 12 13 13 13 13 13 13 14 14 14 14 14 14 14 15 16 16 16 17 17
19 19 19 18 18 18 18 18 17 17 16 16 16 15 15 15 15 14 14 14 14 14 13 13 13 13 13 13 13 13 13 13 13 13 13 13 13 13 13 13 13 13 13 13 13 13 13 13 13 13 13 13 12 12 12 12 12 12 12 12 12 13 13 13 13 14 14 14 14 14 14 15 14 15 14 14 15 15 15 16 17 17 17 17 17
20 19 19 19 19 18 18 18 18 18 17 17 17 16 16 16 15 15 15 15 14 14 14 14 14 14 14 14 14 14 14 14 14 14 14 14 14 14 14 14 14 14 14 14 14 14 14 14 14 14 14 14 14 14 14 14 14 14 14 14 14 14 14 15 15 14 14 15 15 15 15 15 15 15 15 16 16 16 16 17 17 18 18 17 16
20 20 20 20 19 19 18 18 18 18 18 18 18 17 17 16 16 16 16 15 15 15 15 15 15 15 15 15 15 15 15 15 14 14 14 14 14 14 15 15 15 15 15 15 16 16 16 16 16 16 16 16 16 16 16 16 16 16 16 15 15 15 15 15 15 15 15 15 15 16 16 17 17 17 17 18 17 17 17 18 18 18 18 18 17
21 21 21 20 20 19 19 19 19 19 19 18 18 18 18 17 17 17 17 17 16 16 16 16 16 16 16 16 16 16 16 15 15 15 16 16 16 16 16 16 16 16 17 17 17 17 17 17 16 16 17 17 17 17 17 18 18 18 17 17 17 17 17 16 16 16 16 17 17 17 18 18 18 19 19 19 18 18 19 19 19 18 18 18 18
22 22 22 21 21 20 20 20 19 19 19 19 19 19 19 19 19 18 18 18 17 17 18 18 18 17 17 17 17 17 17 16 16 17 17 17 17 17 17 17 17 17 17 18 18 18 18 18 17 17 18 18 18 18 19 19 19 19 19 19 19 19 18 18 18 18 18 18 19 19 19 19 19 19 19 19 19 19 20 19 19 19 19 19 18
23 23 22 22 22 21 21 21 20 20 20 20 20 19 19 19 19 19 19 19 19 18 18 18 19 19 19 19 19 19 19 18 18 18 18 18 18 18 19 19 19 19 19 19 19 19 19 19 19 20 20 20 19 19 19 20 20 19 20 20 20 20 20 20 20 20 20 20 20 20 20 20 20 20 20 20 20 20 20 20 20 19 19 19 19
24 24 23 23 22 22 21 21 21 21 20 20 20 20 20 20 20 20 20 20 20 20 19 19 19 19 20 20 20 20 20 19 19 19 19 19 20 20 20 20 21 21 21 21 21 21 21 21 21 21 21 21 21 21 21 21 20 20 21 21 20 21 21 21 21 21 21 22 22 21 21 21 21 21 21 21 21 21 21 21 21 21 20 20 20
25 24 24 23 23 22 22 21 21 21 21 21 21 21 21 21 21 21 21 21 21 21 20 20 20 20 20 21 21 21 20 20 20 20 20 20 21 21 22 22 22 22 22 23 23 23 23 22 22 22 22 22 22 22 22 22 22 22 23 22 22 22 22 21 21 21 21 22 22 22 21 21 21 22 22 22 22 22 21 22 22 21 21 20 19
25 24 24 24 23 23 22 22 21 21 21 21 21 21 21 22 22 22 21 21 21 21 21 21 21 21 21 21 22 22 21 21 21 21 21 22 22 22 23 23 23 23 24 24 24 24 23 23 22 23 23 23 23 23 23 23 23 24 24 23 23 22 22 21 21 22 22 22 22 22 22 22 22 23 23 23 23 22 22 22 22 21 21 20 19
25 25 24 24 23 23 22 22 22 22 22 22 22 21 21 22 22 22 22 22 22 22 22 22 22 22 22 22 22 22 22 22 22 22 23 23 23 23 23 23 24 24 24 25 25 24 24 23 23 24 23 23 23 24 24 25 25 25 25 24 24 23 22 22 22 22 22 22 23 23 23 23 23 23 23 23 23 23 22 22 22 21 20 19 17
26 25 25 24 24 24 23 23 23 22 22 22 22 22 22 22 22 22 23 23 23 23 22 22 22 22 22 22 23 22 22 22 23 23 23 24 24 24 24 24 25 25 25 25 25 25 24 24 24 25 24 24 25 25 25 25 26 25 25 25 25 24 23 23 23 23 23 23 23 23 23 23 23 23 23 23 23 22 21 21 21 20 19 18 17
26 26 25 25 24 24 24 24 23 23 23 23 22 22 22 23 23 24 24 24 24 24 24 23 23 23 23 23 23 23 23 23 23 23 24 24 24 25 25 25 25 25 25 25 25 25 24 25 25 26 26 26 26 26 26 26 26 26 26 26 26 25 25 25 25 26 25 24 24 24 24 24 23 22 22 22 21 20 19 19 19 18 19 18 18
26 26 26 26 25 25 25 25 24 25 25 25 24 24 24 24 24 24 25 24 24 24 24 24 23 23 23 23 23 23 23 23 24 24 24 24 24 25 25 25 25 26 26 26 26 26 26 26 27 27 27 27 27 27 27 27 27 27 27 27 27 27 27 27 26 27 26 25 24 24 24 23 22 22 22 21 21 19 19 19 18 18 18 18 18
27 27 27 27 26 26 26 26 26 26 26 26 26 26 25 24 24 25 25 24 24 24 24 23 23 23 23 23 22 23 23 23 24 24 24 24 24 25 25 26 26 26 26 26 27 28 28 28 28 28 28 28 28 28 28 28 28 28 28 28 28 28 28 28 27 27 27 25 24 23 22 22 22 22 22 21 20 19 19 19 18 18 18 18 18
24 24 24 25 25 25 25 25 25 25 26 26 26 26 26 25 25 25 24 23 23 23 23 23 23 23 23 23 23 23 23 23 23 23 24 24 25 25 26 26 26 26 27 27 27 28 29 29 28 29 29 28 28 28 28 28 28 28 28 28 28 28 28 28 27 26 26 24 24 24 24 23 23 22 21 21 21 20 19 19 18 18 18 18 18
19 20 21 21 22 22 23 23 23 24 24 24 25 24 25 25 24 23 23 22 22 23 23 23 23 23 23 23 23 23 23 23 23 24 24 25 24 24 24 25 25 25 25 26 26 27 28 28 27 28 28 28 28 28 28 27 27 27 27 27 27 27 27 27 26 24 24 24 25 25 24 22 22 22 22 21 21 21 20 19 18 18 18 18 18
12 14 15 16 17 18 19 20 21 22 22 23 23 23 23 22 21 21 22 22 22 22 22 22 23 23 24 24 24 24 24 24 24 23 24 24 24 23 23 23 23 22 23 23 24 24 24 25 25 25 26 27 26 26 26 26 26 26 25 25 25 25 25 25 24 23 23 23 23 23 22 22 22 22 22 21 21 20 19 18 18 17 18 18 19
7 8 9 10 10 11 12 14 16 17 18 19 21 22 22 22 22 22 22 22 21 21 21 21 22 23 23 23 23 23 22 22 22 21 21 21 22 21 21 21 21 21 21 21 20 19 19 19 20 21 22 22 23 23 23 23 23 22 22 21 21 21 21 21 21 21 21 21 21 21 21 21 21 21 21 20 20 19 18 18 18 18 19 20 20
5 6 6 7 6 6 6 7 9 10 12 13 15 17 19 20 21 21 20 19 19 18 18 18 18 19 19 19 19 19 18 18 19 18 18 19 19 20 20 20 20 19 19 19 18 18 17 18 18 18 18 17 18 18 18 18 18 18 18 19 19 19 19 19 19 19 19 20 20 20 20 19 20 20 20 20 19 18 19 20 20 20 21 22 22
4 5 5 5 5 5 5 5 5 6 8 9 9 10 11 13 14 14 14 14 14 15 15 15 15 16 16 16 16 17 17 17 18 18 18 19 19 20 20 20 20 19 19 19 19 18 18 18 18 18 17 17 16 16 16 16 17 16 16 17 18 18 18 18 18 18 19 19 20 20 20 20 20 20 20 20 20 20 21 21 22 22 23 24 24
5 5 5 5 5 5 5 5 5 5 6 6 6 6 6 7 9 10 11 12 12 13 14 14 14 15 15 15 15 16 17 18 18 19 20 20 20 20 21 20 20 19 19 19 19 19 18 18 18 18 17 17 16 16 16 16 16 16 16 16 17 17 17 18 18 18 18 19 19 19 20 20 21 21 21 21 21 22 23 23 23 24 25 25 26
6 5 5 5 6 6 6 6 6 6 6 6 6 6 7 7 8 9 10 11 12 13 14 14 15 15 15 16 16 17 17 17 18 19 19 20 20 20 19 20 19 19 19 19 19 19 18 18 18 17 17 16 16 16 16 16 16 16 16 16 17 17 18 18 18 19 19 19 20 20 21 21 21 22 22 22 22 23 24 25 25 26 26 27 27
6 6 6 6 6 6 6 6 6 7 7 7 7 7 8 8 9 10 10 11 12 13 13 14 15 15 16 16 16 17 17 17 18 18 18 18 18 18 18 18 19 19 19 18 18 18 18 18 18 17 17 17 17 17 17 17 17 17 17 17 18 18 18 18 19 19 19 20 20 21 21 22 22 22 23 23 24 25 25 26 27 27 28 28 29
8 8 8 8 8 8 8 8 8 8 8 9 9 9 9 9 10 10 11 11 12 12 13 13 14 15 15 16 16 16 16 16 17 17 17 17 17 17 17 18 18 18 18 18 18 18 18 18 18 18 18 18 19 19 19 19 19 19 19 19 19 19 19 20 20 20 21 21 21 22 22 23 23 24 24 25 26 26 27 28 28 29 30 30 30
9 9 9 9 9 9 9 10 10 10 10 10 11 11 11 11 11 11 12 12 13 13 13 14 14 15 15 16 16 16 16 16 17 17 17 17 17 17 18 18 18 18 18 18 18 18 18 18 18 19 19 20 20 20 21 21 21 21 21 21 22 22 22 23 23 23 23 24 24 24 24 25 26 26 27 28 28 29 29 30 30 31 31 32 32
10 10 11 11 11 11 11 11 12 12 12 12 12 13 13 13 13 13 13 13 14 14 14 15 15 16 16 16 16 16 17 17 17 17 17 18 18 18 18 18 18 18 18 19 19 19 19 19 20 20 20 21 21 22 22 22 23 23 23 23 24 24 25 25 25 25 26 26 27 27 27 28 28 29 29 30 31 32 32 33 33 34 34 34 34
11 11 12 12 12 12 12 13 13 13 13 14 14 14 14 14 14 15 15 15 15 15 16 16 16 16 16 17 17 17 17 18 18 18 19 19 19 19 19 18 18 19 19 20 20 20 20 21 21 22 22 22 23 23 23 24 24 25 25 26 26 26 27 27 27 28 28 28 29 29 29 30 31 31 32 33 34 35 35 35 36 36 37 37 37
12 12 13 13 13 14 14 14 14 14 15 15 15 16 16 16 16 16 17 17 17 17 17 17 18 18 18 18 19 19 19 19 20 20 20 20 21 21 21 21 21 21 21 21 22 22 23 23 23 24 24 24 25 25 25 26 26 27 27 27 28 28 29 29 30 30 30 31 31 31 32 32 33 33 34 35 35 36 36 36 37 37 38 38 38
14 14 14 14 15 15 15 15 16 16 16 16 17 17 17 18 18 18 18 19 19 19 19 19 20 20 20 20 21 21 21 22 22 22 22 23 23 23 23 23 23 23 23 23 24 24 25 25 25 26 26 26 27 27 27 28 28 29 29 29 30 30 31 31 31 32 32 33 33 33 34 34 35 35 36 36 37 37 37 37 37 38 38 38 38
16 16 16 16 16 16 16 16 17 17 17 18 18 19 19 20 20 20 20 20 20 21 21 21 22 22 22 23 23 23 23 24 24 24 24 25 25 25 24 24 24 25 25 25 26 26 26 27 27 27 28 28 28 29 29 30 30 30 31 31 32 32 32 33 33 34 34 34 34 34 35 35 36 36 37 37 38 38 38 38 39 39 39 39 39
16 17 17 17 17 17 17 17 17 18 18 18 19 20 20 21 21 21 21 21 22 22 22 22 23 23 23 24 24 24 24 25 26 26 26 26 26 26 26 26 26 26 26 27 27 27 28 28 28 29 29 29 30 30 31 31 32 32 32 33 33 34 34 35 35 35 35 36 36 36 36 36 37 37 37 38 38 38 39 39 39 39 39 39 39
16 17 17 18 18 18 18 18 19 19 19 19 19 20 20 20 21 21 22 22 22 23 23 23 23 24 24 24 24 25 25 26 26 27 27 27 27 27 27 27 27 28 28 28 28 29 29 29 30 30 31 31 32 32 33 33 34 34 34 34 35 35 35 35 36 36 36 36 36 37 37 37 37 37 38 38 39 39 39 39 39 39 39 39 39
17 17 18 18 18 19 19 19 19 20 20 20 20 20 20 21 21 22 22 23 23 23 24 24 25 25 25 25 25 25 26 27 27 28 28 28 28 28 28 28 29 29 29 29 30 30 30 31 31 32 32 32 33 34 34 34 35 35 35 36 36 36 36 36 37 37 37 37 37 37 37 38 38 38 38 38 39 39 39 39 39 39 39 39 39
18 18 19 19 19 19 20 20 20 21 21 20 21 21 21 21 22 22 22 23 24 24 24 24 25 25 25 26 26 27 27 28 29 29 29 29 29 29 29 29 29 29 30 30 31 31 31 32 32 32 33 33 34 34 34 35 35 35 36 36 36 36 37 37 37 37 37 37 37 37 37 37 38 38 38 38 38 38 38 38 38 38 38 38 38
18 18 19 19 20 20 20 21 21 21 21 21 21 22 22 22 22 22 22 23 24 24 25 25 25 25 26 26 26 27 28 29 29 30 30 30 30 30 30 30 30 30 30 31 31 31 32 32 33 33 33 34 34 35 35 35 36 36 36 36 37 37 36 36 36 36 36 36 36 37 37 37 37 38 38 38 38 37 37 38 38 38 38 38 38
18 18 19 19 19 20 20 20 20 21 21 22 22 22 22 22 22 23 23 23 24 24 25 25 25 26 26 27 27 28 28 29 29 30 30 30 30 30 30 30 30 30 31 31 31 32 32 32 33 33 34 34 34 35 35 35 36 36 36 36 36 36 36 36 36 36 36 36 36 37 37 37 37 37 37 37 37 37 37 37 37 38 38 38 38
19 19 19 19 19 19 20 20 20 21 21 21 22 22 23 24 24 24 25 25 26 26 26 27 27 27 28 28 28 29 29 30 30 30 31 30 30 30 30 30 30 30 31 31 31 32 32 32 33 33 33 33 34 34 35 35 35 35 35 35 35 36 36 36 36 36 36 36 37 37 37 36 36 36 36 36 36 37 37 37 37 37 38 38 38
19 20 20 20 20 20 20 20 20 21 21 22 22 23 24 24 25 26 26 27 27 27 28 28 28 28 28 29 29 29 30 30 30 31 31 31 31 30 30 30 30 31 31 31 32 32 32 32 32 32 33 33 34 34 34 34 34 35 35 35 36 36 36 36 36 36 36 36 36 36 36 36 36 36 36 36 36 36 37 37 37 37 37 38 38
20 20 20 21 21 21 22 22 22 22 23 23 24 24 25 25 26 27 27 27 28 28 29 29 29 29 30 30 30 31 31 30 30 31 31 31 31 31 30 31 31 32 32 32 32 32 32 32 32 33 33 33 34 34 34 34 35 35 35 35 35 36 35 35 35 35 36 36 36 36 36 36 36 36 36 36 37 37 37 37 37 37 38 38 38
20 21 21 21 21 22 22 23 23 24 24 25 25 26 27 27 27 27 28 28 29 29 30 30 30 30 31 31 31 31 31 31 31 31 31 31 31 31 31 32 32 32 32 32 32 32 32 32 33 33 34 33 34 34 34 35 35 35 35 35 35 34 34 34 34 35 35 36 36 36 36 36 36 36 36 36 36 37 37 37 38 38 38 38 38
20 21 21 21 22 22 23 23 24 25 25 26 26 27 27 28 28 28 28 29 29 29 30 30 30 30 30 31 31 31 32 32 32 31 31 31 31 31 32 32 32 32 32 32 32 32 33 33 33 33 34 34 34 34 35 35 35 35 35 34 34 34 34 34 35 35 35 35 35 36 36 36 36 36 36 36 36 37 37 37 37 37 38 38 38
21 21 21 22 23 23 24 24 25 25 26 26 27 27 28 28 28 28 29 29 29 29 30 30 30 30 30 31 31 32 32 32 31 31 31 31 31 31 31 31 31 31 31 32 32 32 32 33 33 33 34 34 34 34 34 35 35 35 34 34 34 34 35 35 35 34 34 35 35 35 35 35 35 36 36 36 36 36 37 37 37 37 37 37 36
21 21 22 23 23 24 24 24 25 26 26 26 27 27 28 28 28 28 29 29 29 29 29 29 30 30 30 31 31 31 31 31 31 31 31 31 31 31 31 31 31 31 32 32 32 32 32 33 33 33 33 34 34 34 34 34 34 34 33 33 34 34 34 34 34 34 34 34 34 35 35 35 35 36 36 36 36 36 36 36 36 36 35 35 35
21 21 22 23 23 24 24 25 25 26 26 26 27 27 28 28 28 28 29 29 29 29 29 29 29 29 29 30 30 30 30 30 30 30 30 30 31 31 31 31 31 31 31 32 32 32 33 33 33 33 34 34 34 34 34 34 33 32 33 33 34 34 34 33 33 33 33 34 34 34 34 35 35 35 35 35 35 35 35 35 34 34 34 33 33
Wind_Direction
198 200 201 201 202 202 203 203 205 206 208 210 210 211 212 213 215 215 214 215 213 212 213 214 215 215 215 217 219 220 222 223 224 225 227 229 230 232 234 236 240 243 246 249 251 256 260 263 266 270 273 276 280 284 286 289 291 294 299 304 307 310 311 312 315 318 322 325 327 328 330 332 334 336 338 338 339 340 341 341 340 340 341 342 341
201 202 203 204 205 205 205 206 207 208 210 211 213 214 215 216 217 217 217 218 219 219 219 219 219 219 219 221 223 224 225 227 228 228 229 231 234 236 238 241 244 247 250 254 256 258 262 265 268 271 274 276 278 281 284 286 289 293 298 301 304 307 307 307 311 313 316 320 321 323 324 324 327 329 330 331 332 334 336 336 335 335 337 338 337
203 204 206 207 207 208 208 209 210 211 212 213 215 216 217 217 218 219 220 221 222 223 224 223 223 223 223 224 226 227 229 230 231 232 233 235 237 240 242 244 247 250 252 256 258 259 261 264 267 270 274 276 277 280 282 284 287 290 293 295 298 301 302 302 304 307 310 313 314 315 317 317 319 321 323 324 325 327 328 329 331 331 332 334 335
205 206 208 209 209 210 211 212 212 213 214 216 217 219 220 220 220 221 222 223 225 226 227 227 227 227 227 228 229 230 231 232 234 235 236 239 240 243 245 247 250 253 255 257 258 259 260 262 265 268 271 273 275 277 279 280 282 285 287 289 292 295 298 299 300 302 304 306 308 309 309 310 311 313 316 318 320 322 322 323 326 328 329 331 332
207 208 210 211 212 212 213 214 215 216 217 219 220 221 222 222 223 223 224 226 227 228 229 230 230 231 231 231 232 233 234 234 236 238 239 241 243 245 248 250 252 254 256 258 259 259 260 262 264 266 268 270 272 275 277 278 279 281 282 285 288 290 294 296 298 298 299 301 303 304 304 305 306 308 311 314 317 319 319 320 322 324 326 329 330
209 210 211 212 213 214 215 216 218 218 219 221 222 223 224 224 225 225 226 228 229 230 231 232 232 234 234 235 235 236 237 237 239 241 242 244 246 248 250 251 254 255 257 259 260 260 261 262 264 266 267 268 270 273 276 277 277 278 280 282 285 288 291 295 296 297 297 299 301 302 304 305 306 307 309 311 314 316 317 318 320 321 323 326 327
210 212 213 214 215 216 217 218 219 220 221 222 224 224 225 226 226 227 228 230 231 232 233 233 234 235 236 237 238 238 240 241 242 244 245 246 248 249 251 253 254 256 257 259 260 261 262 263 264 265 266 267 269 272 274 276 277 278 279 282 284 287 290 294 296 296 297 298 300 302 304 305 306 307 308 308 310 312 313 315 317 318 320 322 324
212 213 214 216 217 218 219 220 221 222 223 224 225 226 227 228 228 230 231 232 233 234 235 236 237 238 238 239 240 241 243 244 245 246 247 248 249 251 253 254 256 257 258 260 262 263 265 265 265 266 267 267 269 271 273 275 276 278 280 281 282 286 289 292 293 294 295 297 299 301 303 303 304 306 307 308 308 309 311 313 314 315 317 318 320
215 216 217 219 220 220 221 222 223 224 225 227 228 228 229 230 231 232 233 235 236 237 238 239 239 240 241 241 242 243 244 246 247 248 249 250 252 253 255 256 258 259 259 261 263 264 266 266 266 268 269 268 268 271 273 274 275 276 279 280 281 284 288 290 292 293 293 294 297 299 300 301 303 305 306 307 308 308 309 311 312 313 314 315 315
217 218 219 221 222 223 223 224 225 226 227 229 230 230 231 232 233 234 236 237 239 240 241 241 242 243 243 244 245 246 247 248 248 248 250 252 253 255 257 258 259 259 260 262 264 265 266 267 267 268 269 269 269 271 272 273 273 274 277 279 281 284 286 288 290 291 291 292 295 297 298 299 301 303 303 305 305 306 307 309 310 311 312 312 312
220 221 222 223 224 225 225 225 226 227 229 230 231 232 233 234 234 235 237 239 240 241 242 243 244 245 246 247 247 248 249 250 251 252 254 255 256 256 257 258 259 260 261 263 265 266 266 267 267 267 268 269 271 274 275 275 274 274 276 278 279 282 284 285 287 287 288 291 293 295 296 298 299 299 300 302 303 304 306 307 308 309 310 310 309
224 224 224 225 226 227 228 228 228 229 230 232 233 235 236 237 237 238 239 240 241 243 244 245 246 247 248 249 250 251 252 253 253 255 256 257 259 258 258 260 261 262 263 264 265 266 267 267 267 267 268 269 272 275 276 277 275 274 275 276 278 279 282 283 284 285 287 290 292 293 295 296 297 297 298 299 300 302 304 304 306 307 308 308 306
226 227 228 228 228 229 229 230 231 232 232 233 235 236 237 239 240 241 242 242 243 244 245 246 247 248 249 250 251 253 254 254 255 256 257 257 259 260 261 263 264 265 266 267 267 267 267 268 268 269 270 271 272 274 275 276 276 275 275 276 277 278 280 281 281 283 286 288 290 291 293 294 295 296 296 297 298 299 301 301 302 304 304 304 303
227 228 229 230 230 231 231 231 232 234 234 235 236 237 238 240 241 242 243 244 245 246 246 247 249 249 250 251 253 254 255 256 257 258 259 259 260 262 263 264 265 266 267 268 268 268 268 268 269 270 271 272 273 274 274 275 276 276 276 276 276 278 279 279 279 281 283 285 287 289 290 292 293 294 295 295 296 297 298 299 300 301 301 302 301
228 228 229 230 231 233 233 233 234 235 236 237 237 238 240 241 242 243 244 245 246 247 248 249 250 251 252 253 254 255 256 259 260 260 260 261 262 263 264 264 265 266 267 268 269 269 269 268 268 270 272 272 274 275 274 275 276 277 277 277 277 278 279 278 278 280 282 284 285 287 288 290 292 293 293 294 294 294 295 296 297 298 299 300 300
228 229 229 229 231 232 234 236 236 237 238 239 240 241 242 243 244 245 246 247 247 248 250 251 252 253 254 254 255 256 257 260 262 262 262 263 264 264 265 266 266 267 267 268 269 269 268 268 269 272 272 273 275 276 276 275 276 277 277 278 278 278 278 277 277 280 283 284 285 286 287 289 291 292 293 294 294 294 294 294 295 296 298 298 298
228 229 230 231 231 232 233 235 237 238 240 242 243 244 244 244 245 246 247 248 248 249 250 250 252 253 255 256 257 257 257 260 263 263 263 264 264 265 266 267 268 268 269 269 269 270 270 271 272 273 272 273 274 276 276 276 276 276 277 277 277 278 278 277 278 280 282 283 284 285 286 288 290 291 292 293 294 294 294 294 294 295 295 296 295
228 229 230 231 232 233 234 235 237 239 241 243 244 246 246 246 247 248 248 249 249 250 250 251 252 253 254 255 257 258 259 261 263 263 264 265 265 265 266 268 269 270 271 271 271 271 271 272 272 272 272 273 274 275 276 276 276 276 277 277 277 278 278 278 278 280 281 282 283 283 284 285 287 288 290 292 292 294 295 294 293 292 292 293 293
228 229 231 232 233 234 235 236 238 241 242 243 245 247 248 248 249 249 249 249 250 251 252 252 253 254 254 255 256 258 260 262 264 265 265 266 266 266 266 268 269 270 271 272 272 271 270 272 273 273 272 273 274 275 276 276 276 276 277 276 277 277 278 277 277 278 279 280 281 281 282 284 285 285 288 290 290 291 294 294 291 290 290 290 291
230 231 233 234 234 236 238 239 240 243 243 244 245 248 250 251 251 250 249 249 250 251 252 253 253 253 255 256 257 259 261 263 265 266 266 267 268 267 267 268 270 271 271 272 271 270 271 272 273 273 273 274 274 275 276 276 276 276 277 277 277 277 277 277 276 276 276 278 280 281 282 283 283 284 286 288 289 290 290 290 288 288 289 289 290
232 233 234 234 235 238 240 242 243 245 245 245 246 249 251 251 251 250 249 249 250 251 252 253 253 254 255 256 257 260 261 263 265 267 267 268 269 269 268 269 270 271 273 273 272 271 272 271 272 273 273 274 274 275 276 276 277 277 277 277 276 276 275 276 276 275 275 276 279 279 280 281 282 284 285 285 286 288 288 285 284 285 287 288 288
230 231 231 233 235 239 242 243 244 245 246 247 248 248 249 250 250 249 248 249 250 252 253 253 254 255 255 256 258 260 262 264 266 268 269 269 270 270 269 269 270 271 273 274 273 273 272 271 271 272 273 274 275 275 276 277 277 276 276 276 275 274 273 273 275 275 273 274 276 277 279 281 281 281 282 281 282 285 285 282 281 282 285 287 287
225 226 228 232 237 240 241 242 243 244 246 247 247 247 248 249 247 245 246 249 251 252 254 254 254 255 255 256 258 260 263 265 268 270 270 270 270 270 270 271 272 272 273 274 274 275 273 272 272 273 273 273 274 275 276 276 276 276 276 275 275 274 273 272 273 273 273 274 276 276 277 278 278 279 281 281 280 281 281 279 278 280 284 286 286
212 217 224 231 236 239 241 243 243 244 245 246 246 246 245 243 242 243 248 251 252 253 254 254 254 255 256 257 259 262 264 267 269 270 269 269 269 270 270 272 274 275 275 274 275 277 276 273 273 275 275 273 272 274 276 277 277 277 276 276 276 275 274 273 272 271 272 275 276 275 275 275 276 278 280 279 277 276 276 275 275 278 282 285 285
190 197 205 214 222 228 233 238 240 242 243 243 243 244 242 241 243 248 252 253 252 252 254 254 254 255 256 258 260 262 264 266 268 269 269 268 268 269 271 272 275 276 275 275 277 279 278 276 276 278 278 273 271 273 276 277 277 276 275 276 277 276 275 274 272 271 271 272 273 275 275 275 274 276 278 278 276 274 273 273 274 276 280 282 284
184 188 190 197 206 213 221 230 235 239 241 240 240 240 242 244 247 249 250 251 250 251 253 253 253 252 252 255 257 258 260 263 266 267 268 268 267 268 269 271 273 272 272 273 275 276 275 275 276 278 279 277 274 275 277 278 277 275 274 276 278 276 275 274 272 272 271 271 271 272 273 273 274 276 277 276 274 274 275 276 276 276 279 282 283
197 198 197 203 209 211 215 222 226 228 232 235 236 238 241 244 245 244 243 244 245 247 249 249 250 250 251 253 256 257 259 262 265 266 268 269 269 269 269 270 270 269 269 270 272 273 273 274 274 275 277 278 278 277 278 279 278 277 277 278 278 275 273 273 273 273 272 271 271 271 271 272 275 276 276 274 273 275 278 279 278 277 279 282 283
226 225 224 227 228 223 220 220 222 223 224 227 232 236 240 242 242 242 244 246 247 248 248 249 253 255 255 256 258 259 261 263 266 269 272 273 273 271 271 270 270 270 270 270 270 272 273 273 274 275 276 277 278 278 278 278 276 276 276 278 278 276 275 276 276 276 275 273 271 271 271 272 274 275 274 273 273 275 277 279 279 280 281 282 283
234 238 240 240 240 238 236 235 236 238 238 237 238 243 248 252 252 251 253 256 256 254 253 254 257 258 258 260 262 262 263 265 268 271 273 273 273 271 269 269 269 270 270 270 270 271 272 273 274 275 275 275 275 276 276 276 275 275 275 276 277 278 278 278 278 277 276 275 274 273 273 274 274 274 274 273 274 276 278 279 280 281 282 282 283
243 246 247 248 250 250 249 248 247 247 251 253 254 255 259 265 267 265 262 263 262 260 258 258 258 258 258 260 262 263 265 266 269 270 271 271 271 269 268 267 267 268 268 268 268 269 269 270 272 273 273 274 274 275 275 275 276 276 276 277 278 279 279 280 280 279 278 277 275 274 275 276 276 276 276 276 277 277 279 280 281 282 283 283 284
251 252 251 253 256 256 256 258 258 258 260 262 263 264 266 270 274 274 272 271 270 268 267 265 265 264 263 262 264 265 267 268 269 270 270 271 271 270 269 268 267 266 265 266 267 268 268 269 270 271 272 273 274 275 276 275 275 276 277 278 279 280 280 281 282 281 280 279 278 277 277 277 278 278 278 278 279 279 280 281 283 284 284 285 285
256 256 256 257 259 260 261 263 264 265 266 266 268 269 271 272 275 277 277 276 275 274 274 273 273 273 272 271 271 271 271 271 271 272 273 273 273 273 272 271 269 266 266 268 269 269 270 271 271 271 272 272 273 274 275 275 276 276 277 278 279 281 282 282 282 281 281 280 280 279 279 279 279 279 279 280 281 281 281 282 284 284 285 285 285
260 259 259 259 261 262 263 264 265 267 268 269 270 271 272 273 274 275 276 276 276 276 276 276 276 276 276 276 276 275 274 274 275 276 276 276 277 276 275 273 270 268 269 271 271 271 271 272 272 272 273 273 274 275 275 275 276 277 277 278 279 280 281 282 282 282 281 281 281 281 281 280 280 280 279 280 281 281 282 283 283 284 284 285 285
264 263 263 262 262 263 264 265 265 266 267 268 269 270 271 271 272 272 273 274 275 275 276 277 278 277 277 278 278 277 277 277 277 277 277 278 278 278 278 276 274 274 274 274 273 273 274 274 274 274 275 275 275 275 276 276 277 277 278 278 279 280 280 281 282 282 282 282 282 282 282 282 282 281 281 281 281 282 282 282 283 283 283 284 284
266 267 266 266 265 265 265 266 266 266 267 268 268 269 269 269 270 271 272 272 273 273 274 275 276 277 278 278 278 278 278 277 277 277 277 278 278 278 278 278 277 277 276 276 275 275 275 275 275 275 276 276 277 277 277 277 278 278 279 279 280 281 281 282 282 282 282 282 282 283 283 283 283 283 283 282 283 283 283 283 283 284 284 284 284
267 268 268 269 268 268 268 268 268 268 269 269 269 269 270 270 271 271 271 272 272 272 273 274 274 275 276 277 277 277 277 277 277 277 278 278 278 278 278 277 277 277 276 276 276 276 276 276 276 276 277 277 278 278 278 278 279 279 279 280 280 281 281 282 282 283 283 283 283 283 283 283 284 284 283 283 283 284 284 284 284 285 285 284 284
269 269 270 270 270 271 271 271 271 270 270 271 271 271 271 272 272 273 273 273 273 274 274 274 274 274 275 275 275 276 276 276 276 277 278 279 280 280 279 278 278 277 277 276 276 276 277 277 277 277 278 278 278 279 279 279 279 280 280 280 281 281 281 282 282 282 282 283 283 283 283 283 284 284 284 283 283 284 284 284 284 285 285 284 284
271 271 271 271 271 271 271 271 271 271 272 272 273 273 273 273 273 274 274 275 275 275 276 276 276 276 276 276 276 276 276 275 276 276 277 279 280 280 280 279 279 279 278 278 278 278 278 278 278 278 279 279 279 279 279 280 280 280 280 280 281 281 281 282 282 282 282 282 282 282 282 283 283 283 283 283 283 283 284 284 284 284 284 284 284
274 273 273 272 272 271 271 272 272 273 274 274 274 274 274 274 274 274 275 275 276 276 276 276 277 277 277 276 276 276 276 276 276 277 277 278 279 279 279 279 279 279 279 279 279 279 279 279 279 279 279 279 280 280 280 280 280 281 281 281 281 281 281 281 282 282 282 282 282 282 282 282 283 283 283 283 284 284 284 284 284 284 283 283 283
275 275 275 274 273 272 272 272 272 273 274 274 275 275 275 275 275 275 275 275 276 276 277 277 277 277 276 276 276 276 277 277 277 277 277 277 278 278 278 277 277 278 278 278 278 278 279 279 279 280 280 280 280 280 281 281 281 281 281 281 281 281 282 282 282 282 282 282 282 282 282 283 283 283 284 284 284 284 285 284 284 284 284 284 284
274 274 274 274 274 273 273 272 273 273 274 274 275 276 276 276 276 276 276 276 276 277 277 277 277 277 276 276 276 276 277 277 278 277 277 277 277 277 277 277 276 276 276 276 277 277 277 278 278 279 279 280 280 281 281 281 281 282 282 282 282 282 282 282 282 282 282 282 282 282 282 283 283 284 284 284 285 285 284 284 284 284 284 284 284
274 273 273 273 273 273 272 272 273 273 274 274 275 276 276 276 276 276 277 277 277 277 277 277 277 278 278 278 277 277 277 277 278 278 277 277 277 278 278 277 277 276 276 276 276 276 277 277 278 278 279 279 280 280 281 281 282 282 282 282 282 282 281 281 281 281 281 281 282 282 282 283 283 284 284 284 285 285 285 285 285 285 285 285 285
277 275 274 273 273 273 272 273 273 273 274 274 275 275 276 276 277 277 278 278 278 278 278 278 278 278 279 279 278 277 277 277 278 278 277 277 278 278 278 278 278 278 277 278 278 278 278 278 278 278 278 279 279 280 280 281 281 282 282 282 282 281 281 281 281 281 281 281 282 282 283 283 283 284 284 284 285 285 284 285 285 285 285 285 285
280 278 277 276 275 274 274 274 274 274 274 274 274 275 276 276 277 277 278 278 279 279 279 279 279 279 279 280 279 278 277 277 278 278 277 277 278 278 278 278 278 279 279 279 280 280 279 279 279 279 279 280 281 281 282 282 282 282 282 282 282 282 281 281 281 281 282 282 282 282 283 283 284 284 284 285 285 285 285 285 285 285 285 285 285
280 279 278 277 276 276 275 275 275 275 275 275 276 276 276 277 277 277 278 278 279 279 280 280 279 279 280 280 280 279 278 278 278 277 277 277 277 278 278 278 279 279 280 280 280 280 280 280 280 280 281 281 282 283 283 283 283 283 283 283 283 283 283 282 282 282 282 282 282 283 283 284 284 284 285 286 286 286 286 286 286 286 287 287 287
279 278 278 277 276 276 276 276 277 277 277 278 278 278 278 278 278 278 278 278 279 279 279 279 278 278 279 279 280 280 279 279 278 277 276 277 277 277 277 278 279 279 279 280 280 280 280 280 280 280 281 281 282 283 283 283 284 284 284 284 284 283 283 282 282 282 282 283 283 283 284 284 284 285 285 286 286 286 286 286 286 287 287 287 287
279 278 277 277 277 276 276 277 277 278 278 278 278 278 278 278 278 279 279 279 279 279 280 279 279 278 278 279 279 280 280 280 279 278 277 277 277 277 277 278 279 279 279 279 279 279 279 280 280 281 281 282 282 283 283 284 284 284 284 284 284 283 282 283 283 283 284 284 284 284 285 285 285 285 286 286 286 286 286 286 286 286 286 286 287
279 278 278 278 278 278 277 278 278 278 279 279 279 279 279 279 279 280 280 280 280 280 280 281 280 279 278 278 279 280 280 280 279 278 277 277 277 277 278 278 279 279 278 278 278 278 279 280 281 281 282 282 283 284 284 284 285 285 285 285 284 283 282 283 284 284 284 285 285 285 285 285 285 286 286 287 287 287 287 286 286 286 286 286 287
280 280 280 280 280 280 280 280 280 280 280 280 280 280 280 280 280 281 281 281 281 281 281 281 281 280 280 279 280 280 280 279 278 277 277 276 276 277 277 278 278 277 278 278 279 279 279 280 281 281 282 283 284 284 284 284 284 285 284 284 283 283 283 284 284 284 284 285 285 285 285 285 285 285 286 286 286 287 287 286 286 287 287 287 287
282 281 281 282 282 282 282 282 282 281 282 282 281 281 281 281 281 281 282 282 282 282 282 282 282 281 280 280 280 279 279 278 277 276 276 276 276 277 277 277 277 278 278 279 279 279 280 281 281 282 283 284 284 284 284 284 284 284 283 283 284 284 284 284 284 284 284 285 285 285 285 285 285 285 285 286 286 286 286 287 287 287 287 288 288
283 283 283 283 283 283 283 283 283 282 282 282 282 282 282 282 282 282 283 283 283 283 283 283 282 282 281 281 280 278 277 277 276 276 275 275 276 277 277 278 278 278 278 279 279 279 281 282 282 282 283 284 284 284 284 284 284 283 283 284 284 285 285 285 284 285 286 286 286 286 286 285 285 285 285 285 285 286 286 287 287 287 288 288 288